TimeEDT,TemperatureF,Dew PointF,Humidity,Sea Level PressureIn,VisibilityMPH,Wind Direction,Wind SpeedMPH,Gust SpeedMPH,PrecipitationIn,Events,Conditions,WindDirDegrees,DateUTC
12:51 AM,55.0,39.0,55,30.12,10.0,NNW,5.8,-,N/A,,Clear,340,2013-09-09 04:51:00
1:51 AM,53.1,39.9,61,30.12,10.0,NNW,5.8,-,N/A,,Clear,340,2013-09-09 05:51:00
2:51 AM,50.0,41.0,71,30.13,10.0,Calm,Calm,-,N/A,,Clear,0,2013-09-09 06:51:00
3:51 AM,51.1,39.9,66,30.14,10.0,NNW,6.9,-,N/A,,Clear,340,2013-09-09 07:51:00
4:51 AM,48.0,41.0,77,30.17,10.0,WNW,3.5,-,N/A,,Clear,300,2013-09-09 08:51:00
5:51 AM,48.0,39.9,74,30.20,10.0,NNW,5.8,-,N/A,,Partly Cloudy,340,2013-09-09 09:51:00
6:51 AM,50.0,39.9,68,30.22,10.0,North,4.6,-,N/A,,Partly Cloudy,350,2013-09-09 10:51:00
7:51 AM,55.0,41.0,59,30.24,10.0,Calm,Calm,-,N/A,,Scattered Clouds,0,2013-09-09 11:51:00
8:51 AM,59.0,42.1,53,30.25,10.0,NNE,3.5,-,N/A,,Mostly Cloudy,20,2013-09-09 12:51:00
9:51 AM,62.1,42.1,48,30.26,10.0,Calm,Calm,-,N/A,,Mostly Cloudy,0,2013-09-09 13:51:00
10:51 AM,63.0,39.9,43,30.25,10.0,SSE,6.9,-,N/A,,Mostly Cloudy,150,2013-09-09 14:51:00
11:51 AM,64.9,44.1,47,30.24,10.0,SSW,4.6,-,N/A,,Mostly Cloudy,200,2013-09-09 15:51:00
12:51 PM,66.9,46.0,47,30.23,10.0,SSE,10.4,-,N/A,,Mostly Cloudy,150,2013-09-09 16:51:00
1:51 PM,66.0,48.9,54,30.22,10.0,SSE,9.2,-,N/A,,Mostly Cloudy,160,2013-09-09 17:51:00
2:51 PM,66.0,48.9,54,30.20,10.0,SE,9.2,-,N/A,,Mostly Cloudy,140,2013-09-09 18:51:00
3:51 PM,66.9,44.1,44,30.21,10.0,South,13.8,-,N/A,,Mostly Cloudy,190,2013-09-09 19:51:00
4:51 PM,66.0,46.9,50,30.21,10.0,SSW,11.5,-,N/A,,Mostly Cloudy,200,2013-09-09 20:51:00
5:51 PM,64.0,48.9,58,30.20,10.0,South,12.7,-,N/A,,Mostly Cloudy,190,2013-09-09 21:51:00
6:51 PM,61.0,48.9,64,30.19,10.0,SSW,6.9,-,N/A,,Mostly Cloudy,210,2013-09-09 22:51:00
7:51 PM,57.9,51.1,78,30.19,10.0,South,4.6,-,N/A,,Mostly Cloudy,190,2013-09-09 23:51:00
8:51 PM,57.0,51.1,81,30.19,10.0,SSW,3.5,-,N/A,,Mostly Cloudy,200,2013-09-10 00:51:00
9:51 PM,57.0,50.0,77,30.19,10.0,SSW,6.9,-,N/A,,Mostly Cloudy,210,2013-09-10 01:51:00
10:51 PM,57.0,50.0,77,30.19,10.0,South,4.6,-,N/A,,Mostly Cloudy,190,2013-09-10 02:51:00
11:51 PM,57.0,50.0,77,30.19,10.0,SW,5.8,-,N/A,,Overcast,220,2013-09-10 03:51:00